{"data":{"norad_id":65226,"epoch":"2026-09-19T22:35:12.319584Z","epoch_age_seconds":210624,"freshness":"STALE","line1":"1 65226U 25177A   26262.94111481  .00000542  00000+0  42638-4 0  9997","line2":"2 65226  11.0001  36.1964 0003120  61.8723 298.1820 14.29422009 57115","mean_motion":14.29422009,"eccentricity":0.000312,"inclination_deg":11.0001,"raan_deg":36.1964,"arg_perigee_deg":61.8723,"mean_anomaly_deg":298.182,"bstar":4.2638e-5,"rev_number":5711,"period_min":100.74001875817,"perigee_km":791.42586554869,"apogee_km":795.90106904028,"semimajor_km":7171.8004672945,"source":"CELESTRAK","updated_at":"2026-09-22T09:00:30.213021Z"}}